[[{"header":{"parameterUnit":"m.s-1","parameterCategory":1,"la1":30.2991,"la2":30.254,"lo1":-89.0895,"lo2":-89.0444,"dy":0.0017,"dx":0.0017,"nx":28,"ny":28,"refTime":"2024-06-09T09:00:00:Z","depth":0,"parameterNumber":2,"parameterNumberName":"U-component_of_WINDS"},"data":[0,0,0,0,0,0,0,0,0,0,0,0,0,0,0,0,0,0,0,0,0,0,0,0,0,0,0,0,0,0,0,0,0,0,0,0,0,0,0,0,0,0,0,0,0,0,0,0,0,0,0,0,0,0,0,0,0,0,2.7907,2.7908,0,2.8018,2.8019,2.8021,2.7998,2.7996,2.7994,2.7992,2.8106,2.811,2.8115,0,0,0,0,0,0,0,0,0,0,0,0,0,2.7671,2.7676,2.7907,2.7908,2.7909,2.8018,2.8019,2.8021,2.7998,2.7996,2.7993,2.7991,2.8104,2.811,2.8116,0,0,0,0,0,0,0,0,0,0,0,0,0,2.7777,2.7677,2.7906,2.7911,2.7913,2.8018,2.802,2.8021,2.7999,2.7996,2.7993,2.799,2.8102,2.8109,2.8117,2.8223,0,0,2.8139,2.8142,0,0,0,0,0,0,0,0,2.7771,2.7786,2.7909,2.7911,2.7913,2.7991,2.7978,2.8089,2.8,2.7966,2.7992,2.7988,2.807,2.808,2.8107,2.8229,2.8234,2.814,2.8144,2.8147,2.815,0,0,0,0,0,0,0,2.7764,2.7781,2.7951,2.7911,2.7913,2.7907,2.7918,2.7999,2.8034,2.7969,2.7967,2.7981,2.807,2.81,2.811,2.8235,2.814,2.8146,2.8151,2.8154,2.8445,2.8448,0,0,0,0,0,0,2.7755,2.7775,2.7947,2.7954,2.7833,2.7914,2.7927,2.7969,2.8033,2.804,2.7983,2.798,2.8089,2.8101,2.8114,2.824,2.8147,2.8154,2.8159,2.8442,2.8446,2.845,0,0,0,0,0,0,2.775,2.7771,2.7943,2.7864,2.7886,2.7921,2.7969,2.7973,2.8003,2.8044,2.805,2.8008,2.8087,2.8103,2.8195,2.8243,2.8158,2.8164,2.8438,2.8443,2.8448,2.8495,0,0,0,0,0,0,2.7743,2.7769,2.7811,2.7865,2.789,2.8023,2.7972,2.7977,2.8016,2.8011,2.8068,2.8075,2.8086,2.8184,2.8203,2.8252,2.817,2.8434,2.844,2.8446,2.8489,2.8501,2.8511,0,0,0,0,0,2.7735,2.7821,2.7813,2.7834,2.7943,2.8026,2.804,2.8052,2.802,2.8061,2.8087,2.8073,2.8236,2.8194,2.8214,2.8267,2.8431,2.8438,2.8446,2.8484,2.8498,2.851,0,0,0,0,0,0,2.7771,2.7828,2.782,2.7926,2.7971,2.8022,2.8075,2.8067,2.8122,2.8116,2.8128,2.8141,2.8233,2.826,2.8212,2.8371,2.8328,2.834,2.8351,2.8365,2.8375,2.8366,2.8176,0,0,0,0,0,2.7792,2.7855,2.7901,2.799,2.8013,2.804,2.8077,2.8081,2.8129,2.8148,2.8181,2.8227,2.8288,2.8328,2.8387,2.8493,2.8503,2.8539,2.855,2.8558,2.8568,2.8622,2.8637,2.8474,2.8474,2.8474,0,0,2.7834,2.7873,2.7913,2.7998,2.8034,2.8097,2.8057,2.8127,2.8174,2.8159,2.8246,2.8272,2.8324,2.8422,2.8467,2.8447,2.8615,2.8568,2.8574,2.8579,2.8631,2.8646,2.866,2.8479,2.8478,2.8477,0,0,2.7944,2.7981,2.8057,2.8093,2.8147,2.8164,2.8183,2.8234,2.825,2.8339,2.8327,2.8383,2.8489,2.8526,2.8558,2.8678,2.8666,2.8697,2.8753,2.8805,2.8818,2.8829,2.8869,2.8883,2.8707,2.8707,2.8707,0,2.799,2.8087,2.8097,2.8168,2.8204,2.8193,2.8268,2.8303,2.8374,2.8398,2.8375,2.8505,2.8539,2.8644,2.8673,2.8701,2.872,2.869,2.8816,2.8827,2.8838,2.8875,2.8891,2.871,2.871,2.8709,2.8709,0,2.8138,2.8205,2.826,2.8327,2.837,2.8443,2.8463,2.8505,2.8505,2.8524,2.8612,2.8653,2.8718,2.8744,2.8746,2.8848,2.8833,2.8813,2.8769,2.8856,2.8891,2.8906,2.8715,2.8713,2.8712,2.8712,0,0,2.8275,2.8345,2.8365,2.8393,2.8451,2.8502,2.8573,2.8636,2.867,2.8719,2.8777,2.8866,2.8846,2.8882,2.8888,2.8935,2.9022,2.8908,2.8909,2.8925,2.9133,2.9146,2.9163,2.9015,2.9018,2.902,2.9127,0,2.8387,2.8512,2.8523,2.8635,2.8695,2.8684,2.8745,2.8786,2.8805,2.8858,2.8879,2.894,2.8911,2.8933,2.8978,2.9002,2.9064,2.8995,2.9067,2.9069,2.9051,2.9182,2.9197,2.9296,2.9142,2.9144,2.9146,0,2.8535,2.8586,2.8704,2.875,2.8776,2.8831,2.8887,2.8939,2.8984,2.8994,2.9034,2.9032,2.9103,2.9058,2.9154,2.9107,2.9137,2.9153,2.9157,2.9162,2.9111,2.9188,2.9329,2.9342,2.9169,2.9167,2.9165,0,2.8618,2.8717,2.8799,2.8825,2.8882,2.892,2.8945,2.8987,2.9023,2.9073,2.9095,2.9153,2.9184,2.9227,2.924,2.9207,2.9335,2.9292,2.9343,2.9342,2.9369,2.9367,2.9513,2.9393,2.9393,2.9393,2.9392,0,2.8741,2.8813,2.8837,2.8887,2.8966,2.8977,2.9054,2.9077,2.9114,2.9167,2.9162,2.9212,2.9227,2.9279,2.929,2.9365,2.9381,2.9389,2.939,2.9388,2.9386,2.9406,2.9399,2.9396,2.9396,2.9395,2.9394,0,2.8847,2.8866,2.8955,2.9,2.9013,2.9069,2.9107,2.9154,2.9172,2.9239,2.9255,2.9283,2.9343,2.936,2.9434,2.9441,2.9528,2.9525,2.9513,2.9512,2.9561,2.9555,2.9723,2.9744,2.9613,2.9614,2.9615,0,2.8923,2.8977,2.9028,2.9063,2.9089,2.9146,2.9182,2.9194,2.9232,2.9285,2.9325,2.9385,2.9433,2.953,2.9556,2.9611,2.9607,2.9662,2.9615,2.9609,2.9603,2.9599,2.9603,2.967,2.9671,2.9673,2.9673,0,2.9054,2.906,2.9113,2.9168,2.921,2.9255,2.9297,2.9326,2.9343,2.9385,2.9446,2.9484,2.9557,2.9615,2.967,2.9695,2.9686,2.9688,2.9702,2.9699,2.9688,2.9691,2.9534,2.9684,2.9683,2.9682,2.9681,2.9681,2.9145,2.9192,2.9233,2.9291,2.9323,2.9362,2.9408,2.943,2.9482,2.9542,2.9546,2.9611,2.9652,2.9725,2.9752,2.9802,2.9786,2.9807,2.9812,2.9816,2.9818,2.9682,2.9813,2.9812,2.9812,2.9812,2.9812,0,2.9273,2.9299,2.9352,2.941,2.9454,2.9443,2.9488,2.9526,2.9583,2.9622,2.9669,2.9737,2.9793,2.9822,2.9877,2.9911,2.9908,2.9925,2.9921,2.9926,2.9832,2.9813,2.9926,2.9926,2.9926,2.9926,2.9926,2.9926,2.9345,2.9422,2.9432,2.9524,2.9549,2.9613,2.9639,2.9674,2.9704,2.9781,2.9827,2.9845,2.9879,2.9936,2.9985,2.9992,3.0011,3.0029,3.0034,2.9945,2.9933,2.9922,2.9904,3.0034,3.0034,3.0123,3.0124,3.0125]},{"header":{"parameterUnit":"m.s-1","parameterCategory":1,"la1":30.2991,"la2":30.254,"lo1":-89.0895,"lo2":-89.0444,"dy":0.0017,"dx":0.0017,"nx":28,"ny":28,"refTime":"2024-06-09T09:00:00:Z","depth":0,"parameterNumber":3,"parameterNumberName":"V-component_of_WINDS"},"data":[0,0,0,0,0,0,0,0,0,0,0,0,0,0,0,0,0,0,0,0,0,0,0,0,0,0,0,0,0,0,0,0,0,0,0,0,0,0,0,0,0,0,0,0,0,0,0,0,0,0,0,0,0,0,0,0,0,0,-0.0859,-0.0858,0,-0.0808,-0.0807,-0.0807,-0.0801,-0.0801,-0.0802,-0.0802,-0.0749,-0.0747,-0.0745,0,0,0,0,0,0,0,0,0,0,0,0,0,-0.0952,-0.095,-0.0859,-0.0858,-0.0858,-0.0808,-0.0807,-0.0806,-0.0801,-0.0801,-0.0802,-0.0802,-0.0749,-0.0747,-0.0745,0,0,0,0,0,0,0,0,0,0,0,0,0,-0.0907,-0.095,-0.0859,-0.0849,-0.0847,-0.0808,-0.0807,-0.0806,-0.08,-0.0801,-0.0802,-0.0803,-0.075,-0.0747,-0.0745,-0.0712,0,0,-0.0736,-0.0735,0,0,0,0,0,0,0,0,-0.091,-0.0904,-0.0851,-0.0849,-0.0848,-0.0811,-0.082,-0.0774,-0.08,-0.0818,-0.0802,-0.0803,-0.0769,-0.0765,-0.0753,-0.0709,-0.0707,-0.0736,-0.0734,-0.0733,-0.0732,0,0,0,0,0,0,0,-0.0913,-0.0906,-0.0839,-0.085,-0.0848,-0.0847,-0.0841,-0.0812,-0.079,-0.0817,-0.0816,-0.081,-0.0768,-0.0756,-0.0752,-0.0706,-0.0736,-0.0733,-0.0731,-0.073,-0.0634,-0.0633,0,0,0,0,0,0,-0.0918,-0.0908,-0.084,-0.0837,-0.0881,-0.0844,-0.0838,-0.0822,-0.079,-0.0786,-0.081,-0.081,-0.0761,-0.0755,-0.075,-0.071,-0.0733,-0.073,-0.0728,-0.0635,-0.0634,-0.0633,0,0,0,0,0,0,-0.092,-0.0912,-0.0842,-0.0873,-0.0864,-0.0842,-0.0824,-0.0821,-0.0809,-0.0785,-0.0781,-0.0801,-0.0761,-0.0754,-0.0722,-0.0708,-0.0729,-0.0726,-0.0636,-0.0635,-0.0634,-0.063,0,0,0,0,0,0,-0.0923,-0.0913,-0.09,-0.0872,-0.0862,-0.0815,-0.0823,-0.0819,-0.0804,-0.0804,-0.0776,-0.0772,-0.0761,-0.0726,-0.0719,-0.0705,-0.0724,-0.0637,-0.0635,-0.0634,-0.0631,-0.0629,-0.0627,0,0,0,0,0,-0.0926,-0.09,-0.0899,-0.0891,-0.0845,-0.0814,-0.0808,-0.0796,-0.0803,-0.079,-0.0775,-0.0773,-0.0711,-0.0723,-0.0715,-0.07,-0.0638,-0.0636,-0.0634,-0.0632,-0.0629,-0.0627,0,0,0,0,0,0,-0.0925,-0.0896,-0.0895,-0.0859,-0.0839,-0.0813,-0.0796,-0.0793,-0.077,-0.0771,-0.0758,-0.0751,-0.072,-0.0706,-0.072,-0.0667,-0.0675,-0.0672,-0.0677,-0.0674,-0.0671,-0.0675,-0.0722,0,0,0,0,0,-0.0921,-0.0898,-0.0874,-0.0845,-0.0835,-0.0818,-0.0803,-0.0796,-0.0775,-0.0766,-0.0748,-0.0727,-0.0704,-0.0688,-0.0664,-0.063,-0.0624,-0.0615,-0.0613,-0.0612,-0.0608,-0.059,-0.0586,-0.0627,-0.0627,-0.0627,0,0,-0.0912,-0.0894,-0.088,-0.0845,-0.0828,-0.0805,-0.081,-0.0785,-0.0767,-0.0762,-0.073,-0.0717,-0.0693,-0.066,-0.0644,-0.0648,-0.0596,-0.0609,-0.0608,-0.0606,-0.0588,-0.0584,-0.0581,-0.0626,-0.0626,-0.0626,0,0,-0.0884,-0.0868,-0.0842,-0.0826,-0.0802,-0.079,-0.0784,-0.0759,-0.075,-0.0718,-0.0714,-0.0693,-0.0652,-0.0635,-0.0621,-0.0589,-0.0587,-0.0582,-0.057,-0.0552,-0.0549,-0.0546,-0.0535,-0.0532,-0.0579,-0.0579,-0.0579,0,-0.0876,-0.0841,-0.0829,-0.0805,-0.079,-0.0785,-0.0759,-0.0744,-0.0713,-0.0703,-0.0708,-0.0657,-0.064,-0.0603,-0.0596,-0.0584,-0.0578,-0.0585,-0.0551,-0.0548,-0.0545,-0.0534,-0.053,-0.0579,-0.0579,-0.0579,-0.0579,0,-0.0832,-0.0808,-0.079,-0.0761,-0.0745,-0.0719,-0.0705,-0.0689,-0.0684,-0.0673,-0.0641,-0.0622,-0.0595,-0.0586,-0.058,-0.0548,-0.0551,-0.0554,-0.0561,-0.0541,-0.0531,-0.0526,-0.0578,-0.0578,-0.0578,-0.0578,0,0,-0.0801,-0.0767,-0.0761,-0.0749,-0.0722,-0.0703,-0.0678,-0.0653,-0.064,-0.0619,-0.0598,-0.0565,-0.0567,-0.0551,-0.0544,-0.0528,-0.0505,-0.0533,-0.0532,-0.0528,-0.047,-0.0469,-0.0464,-0.0504,-0.0503,-0.0502,-0.0473,0,-0.077,-0.0726,-0.0716,-0.0678,-0.0656,-0.0652,-0.0631,-0.0612,-0.0601,-0.0581,-0.0569,-0.0545,-0.055,-0.054,-0.0525,-0.0511,-0.0493,-0.0513,-0.0485,-0.0484,-0.0491,-0.0459,-0.0457,-0.043,-0.0468,-0.0468,-0.0467,0,-0.0727,-0.0707,-0.0667,-0.0645,-0.0635,-0.0616,-0.0592,-0.0573,-0.0552,-0.0546,-0.0529,-0.0524,-0.0499,-0.0509,-0.0474,-0.0488,-0.0476,-0.0467,-0.0466,-0.0463,-0.0474,-0.0455,-0.0421,-0.0417,-0.0461,-0.0461,-0.0462,0,-0.0709,-0.0671,-0.0643,-0.0632,-0.0605,-0.0592,-0.058,-0.0561,-0.0546,-0.0526,-0.0517,-0.0493,-0.0481,-0.0463,-0.0452,-0.046,-0.0418,-0.0427,-0.0412,-0.0413,-0.0403,-0.0404,-0.0367,-0.0396,-0.0396,-0.0396,-0.0396,0,-0.0676,-0.0652,-0.0635,-0.0617,-0.059,-0.058,-0.0554,-0.0542,-0.0525,-0.0505,-0.05,-0.0482,-0.0469,-0.0449,-0.044,-0.0413,-0.0407,-0.0401,-0.0399,-0.0402,-0.0403,-0.0393,-0.0395,-0.0395,-0.0395,-0.0395,-0.0395,0,-0.065,-0.0638,-0.0607,-0.0585,-0.0579,-0.056,-0.0541,-0.0524,-0.0514,-0.0489,-0.0483,-0.0466,-0.0443,-0.043,-0.0401,-0.0395,-0.0365,-0.0364,-0.0372,-0.0371,-0.0357,-0.0359,-0.0313,-0.0306,-0.0339,-0.0339,-0.0339,0,-0.063,-0.0611,-0.0587,-0.0574,-0.0562,-0.0541,-0.0527,-0.0516,-0.0502,-0.0478,-0.0464,-0.0441,-0.0421,-0.0384,-0.0369,-0.0347,-0.0346,-0.0331,-0.0342,-0.0346,-0.0346,-0.0347,-0.0346,-0.0329,-0.0329,-0.0328,-0.0328,0,-0.0594,-0.059,-0.0569,-0.0547,-0.0531,-0.0513,-0.0495,-0.0484,-0.0471,-0.0455,-0.0431,-0.0416,-0.0387,-0.0364,-0.0341,-0.0329,-0.0327,-0.0325,-0.0321,-0.0323,-0.0328,-0.0326,-0.0367,-0.0326,-0.0326,-0.0326,-0.0327,-0.0327,-0.0571,-0.0555,-0.0536,-0.0514,-0.05,-0.0484,-0.0467,-0.0455,-0.0435,-0.0411,-0.0406,-0.0381,-0.0363,-0.0332,-0.0319,-0.03,-0.0303,-0.0296,-0.0294,-0.0293,-0.0293,-0.0332,-0.0296,-0.0296,-0.0296,-0.0296,-0.0296,0,-0.0536,-0.0524,-0.0504,-0.048,-0.0463,-0.0463,-0.0443,-0.0429,-0.0408,-0.0391,-0.0372,-0.0346,-0.0324,-0.0308,-0.0286,-0.0274,-0.0272,-0.0268,-0.0269,-0.0266,-0.0291,-0.0297,-0.027,-0.027,-0.027,-0.027,-0.027,-0.027,-0.0516,-0.0489,-0.0482,-0.0449,-0.0437,-0.0413,-0.0402,-0.0387,-0.0374,-0.0345,-0.0327,-0.0317,-0.0301,-0.0278,-0.0258,-0.0254,-0.0246,-0.0242,-0.0238,-0.0262,-0.0264,-0.0267,-0.0273,-0.0241,-0.0241,-0.0215,-0.0215,-0.0215]}]]